Tracking 30743 objects as of 21-Jun-2025
HD Live streaming from Space Station
objects crossing your sky now

STARLINK-4763

Track STARLINK-4763 now!
10-day predictions
STARLINK-4763 is classified as:


NORAD ID: 53805
Int'l Code: 2022-111AJ
Perigee: 545.9 km
Apogee: 547.9 km
Inclination: 53.2 °
Period: 95.4 minutes
Semi major axis: 6917 km
RCS: Unknown
Launch date: September 11, 2022
Source: United States (US)
Launch site: AIR FORCE EASTERN TEST RANGE (AFETR)
Your satellite tracking list
Your tracking list is empty




NASA's NSSDC Master Catalog

Two Line Element Set (TLE):
1 53805U 22111AJ  25172.56326247 -.00000297  00000-0 -58201-6 0  9992
2 53805  53.2176 341.4898 0001381  92.4763 267.6388 15.08834548154600
Source of the keplerian elements: AFSPC